Location: Faicchio
(41.2833°N, 14.4833°E)
Time: 06:45:08
(UTC+00:00)

Cosmos 158 Rocket - Pass Details

Date: 15 June 2025
Orbit: 695 x 786 km, 74.0° (Epoch: 16 July)

Event Time Altitude Azimuth Distance (km) Brightness Sun altitude
Rises 00:49:49 0° 341° (NNW) 3,187 7.9 -20.8°
Reaches altitude 10° 00:52:12 10° 342° (NNW) 2,245 7.0 -20.6°
Maximum altitude 00:57:17 84° 71° (ENE) 730 3.8 -20.1°
Enters shadow 00:59:59 27° 157° (SSE) 1,343 4.9 -19.9°
